Location: Bailen
(14.1842°N, 120.7958°E)
Time: 04:48:36
(UTC+00:00)

Cosmos 1805 Rocket - Visible Passes

Search period start: 19 April 2026 00:00
Search period end: 29 April 2026 00:00
Orbit: 600 x 621 km, 82.5° (Epoch: 18 April)

Date Brightness Start Highest point End Pass type
(mag) Time Alt. Az. Time Alt. Az. Time Alt. Az.
19 Apr 6.9 19:46:00 10° ENE 19:47:20 11° E 19:48:41 10° E visible
20 Apr 6.0 19:58:36 10° NNE 20:02:03 23° E 20:05:29 10° SE visible
21 Apr 4.5 20:12:33 10° N 20:16:44 47° E 20:20:53 10° SSE visible
22 Apr 3.4 20:27:02 10° N 20:31:22 80° W 20:35:40 10° S visible
23 Apr 4.0 20:41:58 10° NNW 20:45:57 37° W 20:49:55 10° SSW visible
24 Apr 6.2 19:20:09 10° NE 19:23:05 18° E 19:25:59 10° SE visible
24 Apr 4.9 20:57:32 10° NW 21:00:31 18° W 21:03:28 10° SW visible
25 Apr 5.0 19:33:47 10° NNE 19:37:46 35° E 19:40:20 19° SE visible
26 Apr 3.5 19:48:05 10° N 19:52:24 77° E 19:52:39 74° SE visible
27 Apr 4.4 20:02:50 10° NNW 20:05:38 35° NW 20:05:38 35° NW visible
28 Apr 6.7 18:41:56 10° NE 18:42:06 10° NE 18:42:06 10° NE visible
28 Apr 5.5 20:18:08 10° NW 20:18:59 14° NW 20:18:59 14° NW visible
